Terug naar catalogus

COSMOS 700

ActiefNavigatiePO
NORAD 7593·PAYLOAD·🇷🇺 Russia

Gelanceerd Dec 26, 1974 vanaf Plesetsk Cosmodrome

Loading…

Volgende Passages (komende 24 uur)

TLE

VersSource: Space-Track

Epoch: Sep 14, 2026, 04:10 UTC

1 07593U 74105A   26257.17415720  .00000061  00000-0  46401-4 0  9996
2 07593  82.9558 341.9317 0025582  54.7980 328.2714 13.76993202597534

Volg COSMOS 700 in realtime met AllMySat

Download on the App Store